Miscellaneous Local Product
Issued by NWS North Platte, NE

Home | Current Version | Previous Version | Graphics & Text | Print | Product List | Glossary On
Versions: 1 2 3 4 5 6 7 8 9 10 11 12 13 14 15 16 17 18 19 20 21 22 23 24 25 26 27 28 29 30 31 32 33 34 35 36 37 38 39 40 41 42 43 44 45 46 47 48 49 50
809
AXUS43 KLBF 130910
MISLBF


WESTERN AND NORTH CENTRAL NEBRASKA HOURLY WEATHER ROUNDUP
NATIONAL WEATHER SERVICE NORTH PLATTE NE
300 AM CST SAT FEB 13 2016

NOTE: "FAIR" INDICATES FEW OR NO CLOUDS BELOW 12,000 FEET WITH NO
SIGNIFICANT WEATHER AND/OR OBSTRUCTIONS TO VISIBILITY.

NOTE: STATIONS NOT REPORTING VARIABLES SUCH AS SKY/WEATHER OR
PRESSURE ARE PROVIDED BY THE NEBRASKA DEPARTMENT OF
ROADS...RAWS...AND APRS NETWORKS...AND ARE NOT UNDER
NATIONAL WEATHER SERVICE QUALITY CONTROL.

...OBSERVATIONS IN AND NEAR THE EASTERN PANHANDLE OF NEBRASKA...

CITY           SKY/WX    TMP DP  RH WIND       PRES   REMARKS
PINE RIDGE     CLOUDY    33  29  85 S13G23    30.17F WCI  24
CHADRON        CLOUDY    34  29  82 S15       30.16F WCI  24
ALLIANCE       CLOUDY    30  29  96 S17       30.18F FOG     WCI  18
SIDNEY         CLOUDY    30  30 100 S13       30.20F FOG     WCI  20
CRESCENT LAKE    N/A     29  29  99 S13G21      N/A  WCI  19
$$

...OBSERVATIONS IN NORTH CENTRAL NEBRASKA...

CITY           SKY/WX    TMP DP  RH WIND       PRES   REMARKS
VALENTINE      CLOUDY    22  17  81 SE15      30.35F WCI   9
THEDFORD       CLOUDY    25  22  89 S9        30.34R WCI  15
AINSWORTH      CLOUDY    20  15  81 SE13      30.37F WCI   8
O`NEILL        CLOUDY    15   9  79 SE9       30.49S WCI   3
ORD            CLOUDY    17  10  74 SE10      30.46F WCI   5
BROKEN BOW     CLOUDY    19  14  81 S14       30.41F WCI   6
VALENTINE NWR    N/A     20  16  85 SE12        N/A  WCI   8
BUTTE            N/A     10   7  87 E12         N/A  WCI  -5
HALSEY           N/A     22  17  82 SE9G16      N/A  WCI  12
CHAMBERS         N/A     14   8  76 E7          N/A  WCI   4
EWING            N/A     12   7  81 CALM        N/A
$$

...OBSERVATIONS IN SOUTHWEST NEBRASKA AND FAR NORTHEAST COLORADO...

CITY           SKY/WX    TMP DP  RH WIND       PRES   REMARKS
WRAY           CLOUDY   N/A N/A N/A SE10      30.28F FOG
HOLYOKE        CLOUDY    34  32  93 S13       30.27F FOG     WCI  25
IMPERIAL       CLOUDY    28  27  96 S15       30.31F WCI  16
OGALLALA       CLOUDY    29  27  93 SE12      30.29F FOG     WCI  19
NORTH PLATTE   CLOUDY    23  19  85 SE10      30.36F WCI  12
MCCOOK         CLOUDY    24  23  96 SE13      30.40F FOG     WCI  12
LEXINGTON      CLOUDY    21  16  82 SE13      30.44F WCI   8
STAPLETON        N/A     21  19  91 CALM        N/A
$$

...OBSERVATIONS IN CENTRAL LINCOLN COUNTY AREA...

CITY           SKY/WX    TMP DP  RH WIND       PRES   REMARKS
N.P. AIRPORT   CLOUDY    23  19  85 SE10      30.36F WCI  12
N.P. DOWNTOWN    N/A     22  20  90 S6G14       N/A  WCI  15
N.P. SOUTHEAST   N/A     22  19  89 S8          N/A  WCI  13
N.P. HILLCREST   N/A     22  20  93 S12         N/A  WCI  11
$$

...SOME OBSERVATIONS FROM AROUND THE REGION...

CITY           SKY/WX    TMP DP  RH WIND       PRES   REMARKS
DENVER         FOG       28  26  92 CALM      30.15F VSB 1/8
LARAMIE        CLOUDY    39  20  46 SW14      30.17F WCI  31
CHEYENNE       CLOUDY    32  27  81 SW5       30.11F WCI  27
SCOTTSBLUFF    CLOUDY    33  30  88 SE13      30.16F WCI  24
RAPID CITY     CLOUDY    27  23  85 SE14      30.13F WCI  16
BISMARCK       CLOUDY     8  -1  66 SE12      30.43F WCI  -7
PIERRE         CLOUDY    11   6  81 SE18      30.42F WCI  -7
WINNER         CLOUDY    17  10  74 SE17      30.41F WCI   1
SIOUX FALLS    CLOUDY     0  -7  72 NE6       30.58F WCI -12
OMAHA          CLOUDY    10  -3  55 NE5       30.64S WCI   2
GRAND ISLAND   CLOUDY    16   7  67 E12       30.52F WCI   3
KANSAS CITY    CLOUDY    16   3  56 NE9       30.60F WCI   4
WICHITA        CLOUDY    28  15  58 NE12      30.50S WCI  18
OKLAHOMA CITY  CLEAR     35  27  72 NE9       30.43S WCI  28
LIBERAL        CLOUDY    25  19  80 SE6       30.37S WCI  18
HAYS           CLOUDY    23  10  58 E9        30.46F WCI  13
GOODLAND       CLOUDY    26  24  92 S18       30.31F WCI  13
$$




USA.gov is the U.S. government's official web portal to all federal, state and local government web resources and services.